Torna al catalogo

STARLINK-32003

AttivoComunicazioniVLEO
NORAD 60097·PAYLOAD·🇺🇸 United States

Lanciato Jun 23, 2024 da Cape Canaveral Space Force Station

Loading…

Prossimi Passaggi (prossime 24 ore)

TLE

AggiornatoSource: CelesTrak SupGP

Epoca: Sep 14, 2026, 21:11 UTC

1 60097C 24117G   26257.88312500  .00048033  00000+0  14191-2 0  2578
2 60097  53.1572 236.0955 0001368  90.1240 300.4181 15.34366698    10

Traccia STARLINK-32003 in tempo reale con AllMySat

Download on the App Store